Location: Twentynine Palms Airport
(34.1316°N, 115.9458°W)
Time: 14:59:36
(UTC-07:00)

Amateur Radio Satellites - All Passes

Search period start: 21 August 2014 14:29
Search period end: 22 August 2014 14:29
Location: Twentynine Palms Airport, 34.1316°N, 115.9458°W

Satellite Date Start Highest point End Downlink Frequencies (MHz)
Time Altitude Azimuth
Oscar 16 21 Aug 14:29:42 14:33:54 25° 264° (W) 14:38:08 437.025 USB, Beacon 2401.1428
AO-27 21 Aug 14:30:56 14:36:03 60° 259° (W) 14:41:10 436.795 MHz FM
JAS-1B 21 Aug 14:45:12 14:55:02 73° 257° (WSW) 15:04:41 435.800 - 435.900 CW/SSB
ISS 21 Aug 14:46:27 14:49:05 21° 326° (NW) 14:51:43 145.800 FM
Uosat F 21 Aug 14:51:20 14:51:45 10° 62° (ENE) 14:52:10 435.120 FM
TMSAT-1 21 Aug 14:59:15 15:04:31 75° 75° (ENE) 15:09:49 436.925 FM
MaSat-1 21 Aug 15:01:14 15:05:37 53° 108° (ESE) 15:10:31 437.345 MHz
PANSAT 21 Aug 15:04:27 15:05:12 11° 157° (SSE) 15:05:58 not established
SO-50 21 Aug 15:14:04 15:18:49 61° 59° (ENE) 15:23:37 436.795 FM
Gurwin Techsat 1B 21 Aug 15:41:38 15:46:14 30° 263° (W) 15:50:51 435.225 FM
ITAMSAT 1 21 Aug 15:49:06 15:49:41 10° 269° (W) 15:50:15 435.822 SSB
AO-7 21 Aug 16:06:09 16:14:29 78° 71° (ENE) 16:22:49 29.400 - 29.500 MHz
RS-15 21 Aug 16:10:56 16:18:00 18° 31° (NNE) 16:25:09 29.354 - 29.394 USB, Beacon 29.352 USB
Uosat F 21 Aug 16:24:48 16:29:49 80° 257° (WSW) 16:34:52 435.120 FM
UOSAT-12 21 Aug 16:30:32 16:34:36 28° 53° (NE) 16:38:36 437.025 FM, 437.400 FM
MaSat-1 21 Aug 16:40:06 16:43:09 17° 306° (NW) 16:46:21 437.345 MHz
PANSAT 21 Aug 16:41:36 16:44:50 26° 168° (SSE) 16:48:03 not established
JAS-1B 21 Aug 16:42:15 16:46:32 14° 272° (W) 16:50:49 435.800 - 435.900 CW/SSB
TMSAT-1 21 Aug 16:44:21 16:44:54 10° 269° (W) 16:45:26 436.925 FM
SO-50 21 Aug 16:56:51 16:58:52 13° 253° (WSW) 17:00:52 436.795 FM
OPAL 21 Aug 17:14:16 17:19:30 90° 104° (ESE) 17:24:43 ?
JAS-2 21 Aug 17:39:02 17:45:42 53° 73° (ENE) 17:51:37 435.800 - 435.900 CW/SSB, 435.910 FM
Hamsat 21 Aug 17:43:59 17:48:08 55° 75° (ENE) 17:52:21 145.90 MHz
AO-7 21 Aug 18:02:29 18:07:53 19° 266° (W) 18:13:18 29.400 - 29.500 MHz
Sapphire 21 Aug 18:06:08 18:10:34 26° 107° (ESE) 18:15:01 437.095 MHz 1200 baud AX-25 AFSK
UOSAT-12 21 Aug 18:10:41 18:14:39 28° 249° (WSW) 18:18:34 437.025 FM, 437.400 FM
PANSAT 21 Aug 18:21:07 18:24:38 35° 181° (S) 18:28:09 not established
RS-15 21 Aug 18:22:00 18:33:03 65° 58° (ENE) 18:44:30 29.354 - 29.394 USB, Beacon 29.352 USB
PCSat 21 Aug 18:35:42 18:40:57 56° 112° (ESE) 18:46:15 145.825 MHz
STRAND 1 21 Aug 18:42:19 18:46:27 25° 96° (E) 18:50:34 ?
SO-67 21 Aug 19:11:23 19:14:51 86° 80° (E) 19:18:20 435.3500 MHz FM
HO-68 21 Aug 19:11:25 19:14:00 12° 56° (NE) 19:16:35 435.675 MHz FM
JAS-2 21 Aug 19:25:47 19:30:50 22° 264° (W) 19:35:30 435.800 - 435.900 CW/SSB, 435.910 FM
Oscar 10/S400 21 Aug 19:30:11 19:48:51 62° 158° (SSE) 20:47:41 145.825 - 145.975 CW/USB, Beacon 145.810 USB
ISS 21 Aug 19:42:17 19:43:30 12° 27° (NNE) 19:44:42 145.800 FM
Sapphire 21 Aug 19:48:53 19:53:47 35° 302° (WNW) 19:58:43 437.095 MHz 1200 baud AX-25 AFSK
PANSAT 21 Aug 20:01:18 20:04:26 24° 193° (SSW) 20:07:34 not established
PCSat 21 Aug 20:21:02 20:24:43 18° 308° (NW) 20:28:26 145.825 MHz
STRAND 1 21 Aug 20:21:08 20:25:36 32° 290° (WNW) 20:30:03 ?
UKube-1 21 Aug 20:23:10 20:25:48 16° 67° (ENE) 20:28:27 145.840 MHz, 145.915 MHz
RS-15 21 Aug 20:35:24 20:44:38 31° 255° (WSW) 20:54:14 29.354 - 29.394 USB, Beacon 29.352 USB
Oscar 11 21 Aug 20:40:20 20:42:29 14° 67° (ENE) 20:44:39 145.825 FM, Beacon 2401.500 USB
HO-68 21 Aug 20:53:24 21:00:32 78° 73° (ENE) 21:07:41 435.675 MHz FM
ISS 21 Aug 21:17:20 21:20:41 85° 44° (NE) 21:24:00 145.800 FM
UKube-1 21 Aug 21:57:38 22:01:40 37° 261° (W) 22:05:43 145.840 MHz, 145.915 MHz
FUNcube-1 21 Aug 22:12:43 22:16:47 58° 75° (ENE) 22:20:53 145.950 - 145.970 MHz USB
Oscar 11 21 Aug 22:14:09 22:18:15 43° 261° (W) 22:22:24 145.825 FM, Beacon 2401.500 USB
HO-68 21 Aug 22:44:51 22:48:48 15° 267° (W) 22:52:46 435.675 MHz FM
KITSAT 1 21 Aug 23:16:32 23:18:00 11° 99° (E) 23:19:27 435.175 FM
Saudisat 1A 22 Aug 00:01:25 00:04:57 24° 111° (ESE) 00:08:30 436.775 MHz
MaSat-1 22 Aug 00:59:50 01:04:30 54° 64° (ENE) 01:08:33 437.345 MHz
KITSAT 1 22 Aug 01:04:00 01:12:03 75° 114° (ESE) 01:20:08 435.175 FM
Oscar 16 22 Aug 01:06:45 01:09:39 15° 93° (E) 01:12:31 437.025 USB, Beacon 2401.1428
AO-40 22 Aug 01:40:09 03:05:44 22° 233° (SW) 05:47:29 Beacon 2401.320
Saudisat 1A 22 Aug 01:40:35 01:44:23 28° 306° (NW) 01:48:13 436.775 MHz
Oscar 19 22 Aug 02:10:55 02:16:07 69° 102° (ESE) 02:21:16 437.125 CW, 437.150 USB
AO-Echo 22 Aug 02:16:21 02:20:34 32° 98° (E) 02:24:45 ?
ITAMSAT 1 22 Aug 02:21:37 02:26:20 35° 98° (E) 02:31:02 435.822 SSB
Gurwin Techsat 1B 22 Aug 02:22:57 02:25:53 15° 93° (E) 02:28:49 435.225 FM
Uribyol 2 22 Aug 02:33:52 02:38:55 51° 100° (E) 02:43:56 436.500 FM
JAS-1B 22 Aug 02:38:25 02:45:09 43° 97° (E) 02:50:54 435.800 - 435.900 CW/SSB
MaSat-1 22 Aug 02:39:50 02:40:48 11° 263° (W) 02:41:43 437.345 MHz
Oscar 16 22 Aug 02:44:12 02:49:15 53° 287° (WNW) 02:54:17 437.025 USB, Beacon 2401.1428
AO-27 22 Aug 02:47:42 02:52:52 68° 102° (ESE) 02:58:01 436.795 MHz FM
OPAL 22 Aug 02:51:16 02:52:29 11° 60° (ENE) 02:53:42 ?
Sapphire 22 Aug 02:59:26 03:01:10 11° 47° (NE) 03:02:54 437.095 MHz 1200 baud AX-25 AFSK
KITSAT 1 22 Aug 03:01:58 03:08:11 24° 313° (NW) 03:14:26 435.175 FM
TMSAT-1 22 Aug 03:19:10 03:24:08 40° 99° (E) 03:29:05 436.925 FM
PCSat 22 Aug 03:28:05 03:32:14 22° 53° (NE) 03:36:22 145.825 MHz
Oscar 19 22 Aug 03:52:39 03:54:49 13° 297° (WNW) 03:56:58 437.125 CW, 437.150 USB
AO-Echo 22 Aug 03:55:40 03:59:07 21° 292° (WNW) 04:02:33 ?
Gurwin Techsat 1B 22 Aug 04:00:57 04:06:08 55° 287° (WNW) 04:11:17 435.225 FM
ITAMSAT 1 22 Aug 04:01:34 04:05:35 23° 292° (WNW) 04:09:36 435.822 SSB
AO-7 22 Aug 04:12:44 04:19:57 32° 98° (E) 04:27:05 29.400 - 29.500 MHz
Uribyol 2 22 Aug 04:14:44 04:17:56 17° 295° (WNW) 04:21:08 436.500 FM
OPAL 22 Aug 04:25:40 04:30:38 78° 255° (WSW) 04:35:43 ?
JAS-1B 22 Aug 04:29:31 04:35:21 27° 298° (WNW) 04:40:31 435.800 - 435.900 CW/SSB
AO-27 22 Aug 04:29:35 04:31:45 13° 297° (WNW) 04:33:56 436.795 MHz FM
Uosat F 22 Aug 04:36:30 04:41:15 42° 99° (E) 04:45:58 435.120 FM
Sapphire 22 Aug 04:39:56 04:45:23 85° 64° (ENE) 04:50:48 437.095 MHz 1200 baud AX-25 AFSK
TMSAT-1 22 Aug 04:59:51 05:03:44 21° 293° (WNW) 05:07:37 436.925 FM
PCSat 22 Aug 05:10:41 05:15:51 46° 249° (WSW) 05:20:58 145.825 MHz
SO-50 22 Aug 05:25:42 05:29:56 46° 114° (ESE) 05:34:16 436.795 FM
Hamsat 22 Aug 05:35:10 05:37:22 14° 93° (E) 05:39:32 145.90 MHz
STRAND 1 22 Aug 05:54:54 05:59:01 25° 68° (ENE) 06:03:07 ?
AO-7 22 Aug 06:04:59 06:12:50 49° 294° (WNW) 06:20:39 29.400 - 29.500 MHz
Uosat F 22 Aug 06:16:18 06:19:40 19° 294° (WNW) 06:23:02 435.120 FM
JAS-2 22 Aug 06:37:01 06:42:08 59° 101° (E) 06:47:27 435.800 - 435.900 CW/SSB, 435.910 FM
UOSAT-12 22 Aug 06:39:09 06:42:18 19° 109° (ESE) 06:45:31 437.025 FM, 437.400 FM
SO-50 22 Aug 07:07:48 07:10:44 17° 311° (NW) 07:13:42 436.795 FM
Hamsat 22 Aug 07:09:22 07:13:28 41° 286° (WNW) 07:17:33 145.90 MHz
STRAND 1 22 Aug 07:33:30 07:38:01 32° 262° (W) 07:42:33 ?
SO-67 22 Aug 08:11:52 08:15:10 43° 285° (WNW) 08:18:27 435.3500 MHz FM
UOSAT-12 22 Aug 08:17:49 08:22:07 39° 304° (NW) 08:26:31 437.025 FM, 437.400 FM
JAS-2 22 Aug 08:24:23 08:26:46 13° 296° (WNW) 08:29:10 435.800 - 435.900 CW/SSB, 435.910 FM
HO-68 22 Aug 08:27:17 08:31:37 17° 93° (E) 08:35:56 435.675 MHz FM
RS-15 22 Aug 08:40:25 08:51:19 60° 112° (ESE) 09:01:56 29.354 - 29.394 USB, Beacon 29.352 USB
KITSAT 1 22 Aug 09:02:36 09:08:20 21° 45° (NE) 09:14:02 435.175 FM
UKube-1 22 Aug 09:49:21 09:53:33 46° 100° (E) 09:57:42 145.840 MHz, 145.915 MHz
Oscar 11 22 Aug 10:05:23 10:09:33 43° 99° (E) 10:13:42 145.825 FM, Beacon 2401.500 USB
FUNcube-1 22 Aug 10:06:28 10:09:16 16° 94° (E) 10:12:05 145.950 - 145.970 MHz USB
Saudisat 1A 22 Aug 10:10:02 10:14:27 79° 61° (ENE) 10:18:50 436.775 MHz
HO-68 22 Aug 10:12:42 10:19:50 73° 288° (WNW) 10:26:56 435.675 MHz FM
RS-15 22 Aug 10:54:12 11:04:06 37° 312° (NW) 11:13:56 29.354 - 29.394 USB, Beacon 29.352 USB
KITSAT 1 22 Aug 10:56:36 11:04:43 87° 245° (WSW) 11:12:46 435.175 FM
UKube-1 22 Aug 11:27:20 11:29:18 13° 294° (WNW) 11:31:16 145.840 MHz, 145.915 MHz
FUNcube-1 22 Aug 11:41:37 11:45:43 37° 287° (WNW) 11:49:54 145.950 - 145.970 MHz USB
Oscar 11 22 Aug 11:43:03 11:45:20 14° 293° (WNW) 11:47:36 145.825 FM, Beacon 2401.500 USB
HO-68 22 Aug 12:04:19 12:06:18 11° 305° (NW) 12:08:17 435.675 MHz FM
Oscar 16 22 Aug 12:20:34 12:23:33 16° 65° (ENE) 12:26:34 437.025 USB, Beacon 2401.1428
ISS 22 Aug 12:21:45 12:23:57 17° 128° (SE) 12:26:09 145.800 FM
KITSAT 1 22 Aug 12:55:24 12:58:56 14° 260° (W) 13:02:27 435.175 FM
JAS-1B 22 Aug 13:15:37 13:24:14 36° 65° (ENE) 13:32:30 435.800 - 435.900 CW/SSB
RS-15 22 Aug 13:17:43 13:21:11 12° 345° (NNW) 13:24:39 29.354 - 29.394 USB, Beacon 29.352 USB
Oscar 19 22 Aug 13:24:03 13:29:07 67° 75° (ENE) 13:34:15 437.125 CW, 437.150 USB
AO-Echo 22 Aug 13:25:27 13:29:59 31° 71° (ENE) 13:34:25 ?
ITAMSAT 1 22 Aug 13:36:04 13:40:48 37° 71° (ENE) 13:45:31 435.822 SSB
Gurwin Techsat 1B 22 Aug 13:40:35 13:43:59 18° 66° (ENE) 13:47:23 435.225 FM
Uribyol 2 22 Aug 13:48:07 13:53:06 52° 73° (ENE) 13:58:07 436.500 FM
ISS 22 Aug 13:57:22 14:00:27 35° 322° (NW) 14:03:33 145.800 FM
Oscar 16 22 Aug 13:57:25 14:02:25 53° 260° (W) 14:07:28 437.025 USB, Beacon 2401.1428
SO-50 22 Aug 14:01:26 14:04:46 19° 50° (NE) 14:08:08 436.795 FM
AO-27 22 Aug 14:02:07 14:07:17 70° 75° (ENE) 14:12:27 436.795 MHz FM
